Regional Weather Roundup
Issued by NWS Boston, MA

Home | Current Version | Previous Version | Text Only | Print | Product List | Glossary On
Versions: 1 2 3 4 5 6 7 8 9 10 11 12 13 14 15 16 17 18 19 20 21 22 23 24 25 26 27 28 29 30 31 32 33 34 35 36 37 38 39 40 41 42 43 44 45 46 47 48 49 50
000
ASUS41 KBOX 280210
RWRBOX

REGIONAL WEATHER ROUNDUP
NATIONAL WEATHER SERVICE TAUNTON MA
1000 PM EDT WED MAY 27 2015

NOTE:  "FAIR" INDICATES FEW OR NO CLOUDS BELOW 12,000 FEET WITH NO
SIGNIFICANT WEATHER AND/OR OBSTRUCTIONS TO VISIBILITY.  THE FOLLOWING
OBSERVATION LOCATIONS DO NOT REPORT PRESENT WEATHER...PROVINCETOWN...
SMITHFIELD...BLOCK ISLAND...KEENE...AND OXFORD.

MAZALL-280300-
EASTERN MASSACHUSETTS

CITY           SKY/WX    TMP DP  RH WIND       PRES   REMARKS
BOSTON         MOCLDY    71  63  75 S15G26    30.13S
BEVERLY        MOCLDY    73  62  68 SW13G28   30.11R
LAWRENCE       CLOUDY    73  63  70 SW13G24   30.12R
BEDFORD        MOCLDY    71  63  75 SW10      30.11S
BLUE HILL        N/A     69  62  78 S18G31    30.14S
NORWOOD        PTCLDY    71  63  75 S9        30.14F
MARSHFIELD     CLEAR     68  61  77 SW12G21   30.17S
PLYMOUTH       PTCLDY    65  60  84 SW15G24   30.19S
TAUNTON        MOCLDY    66  60  81 S7        30.18S
NEW BEDFORD    PTCLDY    63  59  87 SW10      30.19R
$$

MAZALL-280300-
CAPE COD AND THE ISLANDS

CITY           SKY/WX    TMP DP  RH WIND       PRES   REMARKS
FALMOUTH       CLOUDY    64  61  88 SW14G22   30.22R
HYANNIS        MOCLDY    65  61  87 SW16G24   30.20R
CHATHAM        MOCLDY    63  61  93 SW8G21    30.22R
PROVINCETOWN   CLEAR     61  55  82 S18G25    30.19R
NANTUCKET      CLEAR     60  57  89 S12       30.23S
MARTHAS VNYRD  PTCLDY    61  59  93 SW12      30.21S
$$

MAZALL-280300-
CENTRAL AND WESTERN MASSACHUSETTS

CITY           SKY/WX    TMP DP  RH WIND       PRES   REMARKS
WORCESTER      CLOUDY    69  62  78 SW12      30.15F
FITCHBURG      CLOUDY    72  64  76 VRB5      30.12S
ORANGE         LGT RAIN  67  66  97 S5        30.12F
SPRINGFIELD    CLOUDY    68  66  94 S13       30.12S
WESTFIELD      CLOUDY    69  66  90 S10       30.12F
NORTH ADAMS    CLOUDY    67  64  90 SE7       30.10S
PITTSFIELD     MOCLDY    66  63  90 S7        30.12F
$$

RIZALL-280300-
RHODE ISLAND

CITY           SKY/WX    TMP DP  RH WIND       PRES   REMARKS
PROVIDENCE     MOCLDY    69  60  73 S10       30.18F
NEWPORT        CLOUDY    61  58  90 S7        30.20S
BLOCK ISLAND   CLEAR     61  55  82 SW12G17   30.21S
SMITHFIELD     CLOUDY   N/A N/A N/A SW6       30.17F
WESTERLY       CLOUDY    64  58  80 SW6       30.20S
$$

CTZALL-280300-
CONNECTICUT

CITY           SKY/WX    TMP DP  RH WIND       PRES   REMARKS
BRADLEY INTL   LGT RAIN  69  65  86 S7        30.13S
HARTFORD       CLOUDY    69  64  84 S7        30.14S
BRIDGEPORT     CLOUDY    66  60  81 SW9       30.16R
DANBURY        LGT RAIN  67  63  87 SE5       30.16S
GROTON         CLOUDY    63  58  83 CALM      30.18F
NEW HAVEN      CLOUDY    64  60  87 S3        30.16S
CHESTER        NOT AVBL
MERIDEN        CLOUDY    68  62  81 S6        30.15S
WILLIMANTIC    CLOUDY    70  62  76 S9        30.16R
OXFORD         CLOUDY    66  61  82 S5        30.17F
$$

MEZ002-015-021-024-NHZ003-005-008-011-012-014-VTZ005-008-280300-
NORTHERN NEW ENGLAND

CITY           SKY/WX    TMP DP  RH WIND       PRES   REMARKS
PORTLAND ME    CLOUDY    66  60  81 S6        30.06R
BANGOR ME      CLOUDY    64  60  87 S6        30.05R
CONCORD NH     LGT RAIN  71  66  84 S7        30.09S
MANCHESTER NH  CLOUDY    75  65  70 SW9       30.09R
NASHUA NH      CLOUDY    75  66  73 VRB7      30.11R
PORTSMOUTH NH  MOCLDY    76  65  69 SW10      30.06R
JAFFREY NH     LGT RAIN  67  65  93 VRB6      30.12F
KEENE NH       CLOUDY    68  64  88 S8        30.10F
BURLINGTON VT  MOCLDY    73  67  81 S16G23    29.99R
MT. WASHINGTON FOG       52  52 100 W47         N/A  VSB 0
$$

NYZ052-076-280300-
EASTERN NEW YORK

CITY           SKY/WX    TMP DP  RH WIND       PRES   REMARKS
ALBANY         CLOUDY    69  66  90 S10       30.08S
NEW YORK CITY  CLOUDY    69  63  81 S5        30.15R THUNDER
$$

ANZALL-280300-
MARINE OBSERVATIONS

STATION/POSITION TIME  TEMP    WIND        PRES    VSBY  WAVE
                       AIR SEA DIR/SP/G                  HT/PER
                 (UTC) (F)     (DEG/KT/KT) (MB)    (MI)  (FT/S)
BOSTON BUOY      0150   60 52  170/ 12/ 14   N/A           2/ 4
BUZZARDS BAY     0200          260/  7/  7   N/A
NANTUCKET SOUND  0150   62 60  210/ 17/ 19   N/A           2/ 3
MASS BAY-STELLWA 0104   58 51  190/ 14/ 14   N/A    1 7/8  4/ 5
ISLE OF SHOALS   0200   66     210/ 22/ 24   N/A
S OF BLOCK IS    0108      56                N/A           4/ 6
$$

......................KEY.........................
  SKY/WX - SKY CONDITION/PRESENT WEATHER
  TMP    - TEMPERATURE IN FAHRENHEIT
  DWPT   - DEWPOINT IN FAHRENHEIT
  RH     - RELATIVE HUMIDITY IN PERCENT
  WIND   - DIRECTION AND SPEED IN MPH
  PRES   - MEAN SEA LEVEL PRESSURE IN INCHES OF HG
  WCI    - WIND CHILL INDEX
  VSB    - VISIBILITY IN MILES
  HX     - HEAT INDEX
  TC     - TEMPERATURE IN CELSIUS
  VRB    - VARIABLE WIND DIRECTION
  N/A    - NOT AVAILABLE



USA.gov is the U.S. government's official web portal to all federal, state and local government web resources and services.